カタログに戻る

STARLINK-36559

運用中通信SSO
NORAD 67555·PAYLOAD·🇺🇸 United States

打ち上げ Jan 22, 2026 から Vandenberg Space Force Base

Loading…

次のパス (今後24時間)

TLE

最新Source: CelesTrak SupGP

元期: Sep 15, 2026, 04:00 UTC

1 67555C 26014Z   26258.16715278  .00044849  00000+0  13904-2 0  2586
2 67555  97.2848 143.6192 0001638 105.0551 185.2925 15.33457914    14

AllMySatでSTARLINK-36559をリアルタイム追跡

Download on the App Store